York, NE

12:34 PM CST on December 08, 2019 (GMT -0600)
York Municipal

Weather History for KJYR - October, 2019

Change the Weather History Date:

Sunday, October 27, 2019

  Actual Average Record
Temperature  
Mean Temperature 37 °F -  
Max Temperature 42 °F 61 °F 84 °F (1966)
Min Temperature 32 °F 38 °F 17 °F (1957)
Degree Days  
Heating Degree Days 28    
Moisture  
Dew Point 29 °F    
Average Humidity 71    
Maximum Humidity 87    
Minimum Humidity 55    
Precipitation  
Precipitation 0.00 in - - ()
Sea Level Pressure  
Sea Level Pressure 30.04 in    
Wind  
Wind Speed 13 mph (North)    
Max Wind Speed 24 mph    
Max Gust Speed 30 mph    
Visibility 10 miles    
Events      
Averages and records for this station are not official NWS values.
T = Trace of Precipitation, MM = Missing Value Source: NWS Daily Summary

Daily Weather History Graph

Daily Weather History Graph

Search for Another Location

Airport or City:

Astronomy

Oct. 27, 2019 Rise Set
Actual Time 7:55 AM CDT 6:32 PM CDT
Civil Twilight 7:26 AM CDT 7:01 PM CDT
Nautical Twilight 6:54 AM CDT 7:33 PM CDT
Astronomical Twilight 6:22 AM CDT 8:05 PM CDT
Moon 7:04 AM CDT (10/27) 6:43 PM CDT (10/27)
Length of Visible Light 11h 34m
Length of Day
10h 37m
Waning Crescent, 0% of the Moon is Illuminated
Oct 27
Waning Crescent
Oct 27
New
Nov 4
First Quarter
Nov 12
Full
Nov 19
Last Quarter

Hourly Weather History & Observations

Time (CDT) Temp. Windchill Dew Point Humidity Pressure Visibility Wind Dir Wind Speed Gust Speed Precip Events Conditions
12:15 AM 42.8 °F 38.0 °F 37.4 °F 81% 29.80 in 10.0 mi North 8.1 mph - N/A   Clear
12:35 AM 41.0 °F 34.7 °F 37.4 °F 87% 29.81 in 10.0 mi North 10.4 mph 16.1 mph N/A   Clear
12:55 AM 42.8 °F 37.5 °F 35.6 °F 76% 29.81 in 10.0 mi North 9.2 mph 23.0 mph N/A   Clear
1:15 AM 41.0 °F 34.3 °F 35.6 °F 81% 29.83 in 10.0 mi NNW 11.5 mph 16.1 mph N/A   Clear
1:35 AM 41.0 °F 35.2 °F 35.6 °F 81% 29.84 in 10.0 mi North 9.2 mph 17.3 mph N/A   Clear
1:55 AM 41.0 °F 33.9 °F 35.6 °F 81% 29.84 in 10.0 mi North 12.7 mph 20.7 mph N/A   Clear
2:15 AM 39.2 °F 33.6 °F 33.8 °F 81% 29.84 in 10.0 mi North 8.1 mph 18.4 mph N/A   Clear
2:35 AM 39.2 °F 32.0 °F 33.8 °F 81% 29.86 in 10.0 mi North 11.5 mph 19.6 mph N/A   Clear
2:55 AM 39.2 °F 31.6 °F 32.0 °F 75% 29.87 in 10.0 mi North 12.7 mph 19.6 mph N/A   Clear
3:15 AM 39.2 °F 31.2 °F 32.0 °F 75% 29.88 in 10.0 mi North 13.8 mph 19.6 mph N/A   Clear
3:35 AM 39.2 °F 32.0 °F 32.0 °F 75% 29.89 in 10.0 mi North 11.5 mph - N/A   Clear
3:55 AM 39.2 °F 32.0 °F 32.0 °F 75% 29.90 in 10.0 mi North 11.5 mph 17.3 mph N/A   Clear
4:15 AM 37.4 °F 30.3 °F 32.0 °F 81% 29.90 in 10.0 mi North 10.4 mph - N/A   Scattered Clouds
4:35 AM 39.2 °F 32.5 °F 32.0 °F 75% 29.91 in 10.0 mi North 10.4 mph 16.1 mph N/A   Mostly Cloudy
4:55 AM 39.2 °F 28.5 °F 32.0 °F 75% 29.91 in 10.0 mi North 24.2 mph 29.9 mph N/A   Overcast
5:15 AM 39.2 °F 30.8 °F 32.0 °F 75% 29.92 in 10.0 mi North 15.0 mph 20.7 mph N/A   Overcast
5:35 AM 39.2 °F 29.6 °F 32.0 °F 75% 29.93 in 10.0 mi North 19.6 mph 27.6 mph N/A   Overcast
5:55 AM 39.2 °F 30.2 °F 32.0 °F 75% 29.95 in 10.0 mi North 17.3 mph 26.5 mph N/A   Overcast
6:15 AM 39.2 °F 32.5 °F 32.0 °F 75% 29.96 in 10.0 mi North 10.4 mph 20.7 mph N/A   Overcast
6:35 AM 39.2 °F 30.8 °F 32.0 °F 75% 29.97 in 10.0 mi North 15.0 mph 25.3 mph N/A   Overcast
6:55 AM 39.2 °F 30.8 °F 32.0 °F 75% 29.99 in 10.0 mi North 15.0 mph 24.2 mph N/A   Overcast
7:15 AM 39.2 °F 29.8 °F 32.0 °F 75% 29.99 in 10.0 mi North 18.4 mph 29.9 mph N/A   Overcast
7:35 AM 37.4 °F 28.2 °F 32.0 °F 81% 30.00 in 10.0 mi North 16.1 mph 20.7 mph N/A   Overcast
7:55 AM 37.4 °F 29.3 °F 32.0 °F 81% 30.02 in 10.0 mi North 12.7 mph 21.9 mph N/A   Overcast
8:15 AM 37.4 °F 27.2 °F 32.0 °F 81% 30.02 in 10.0 mi North 19.6 mph 26.5 mph N/A   Overcast
8:35 AM 37.4 °F 27.8 °F 32.0 °F 81% 30.03 in 10.0 mi North 17.3 mph 25.3 mph N/A   Overcast
8:55 AM 37.4 °F 28.9 °F 32.0 °F 81% 30.04 in 10.0 mi North 13.8 mph 23.0 mph N/A   Overcast
9:15 AM 37.4 °F 29.3 °F 32.0 °F 81% 30.05 in 10.0 mi North 12.7 mph 19.6 mph N/A   Overcast
9:55 AM 37.4 °F 28.5 °F 32.0 °F 81% 30.06 in 10.0 mi North 15.0 mph 27.6 mph N/A   Overcast
10:15 AM 37.4 °F 27.8 °F 30.2 °F 75% 30.08 in 10.0 mi North 17.3 mph 28.8 mph N/A   Overcast
10:35 AM 37.4 °F 29.8 °F 32.0 °F 81% 30.09 in 10.0 mi North 11.5 mph 21.9 mph N/A   Overcast
10:55 AM 37.4 °F 28.5 °F 30.2 °F 75% 30.08 in 10.0 mi North 15.0 mph 21.9 mph N/A   Overcast
11:15 AM 37.4 °F 26.4 °F 30.2 °F 75% 30.08 in 10.0 mi NNE 23.0 mph 28.8 mph N/A   Overcast
11:35 AM 37.4 °F 27.8 °F 32.0 °F 81% 30.08 in 10.0 mi North 17.3 mph 26.5 mph N/A   Overcast
11:55 AM 39.2 °F 30.2 °F 32.0 °F 75% 30.08 in 10.0 mi North 17.3 mph 24.2 mph N/A   Overcast
12:15 PM 39.2 °F 29.3 °F 32.0 °F 75% 30.08 in 10.0 mi NNE 20.7 mph 27.6 mph N/A   Overcast
12:55 PM 37.4 °F 28.5 °F 32.0 °F 81% 30.10 in 10.0 mi North 15.0 mph 24.2 mph N/A   Overcast
1:15 PM 37.4 °F 28.5 °F 32.0 °F 81% 30.09 in 10.0 mi NNW 15.0 mph 26.5 mph N/A   Overcast
1:55 PM 37.4 °F 27.8 °F 30.2 °F 75% 30.08 in 10.0 mi North 17.3 mph 23.0 mph N/A   Overcast
2:35 PM 39.2 °F 30.2 °F 28.4 °F 65% 30.07 in 10.0 mi North 17.3 mph 25.3 mph N/A   Overcast
2:55 PM 39.2 °F 30.5 °F 28.4 °F 65% 30.07 in 10.0 mi North 16.1 mph 25.3 mph N/A   Overcast
3:15 PM 39.2 °F 29.6 °F 28.4 °F 65% 30.07 in 10.0 mi North 19.6 mph 27.6 mph N/A   Overcast
3:35 PM 39.2 °F 29.8 °F 28.4 °F 65% 30.07 in 10.0 mi North 18.4 mph 26.5 mph N/A   Overcast
3:55 PM 39.2 °F 29.0 °F 28.4 °F 65% 30.07 in 10.0 mi North 21.9 mph 27.6 mph N/A   Overcast
4:15 PM 39.2 °F 30.8 °F 28.4 °F 65% 30.08 in 10.0 mi North 15.0 mph 28.8 mph N/A   Overcast
4:35 PM 39.2 °F 30.8 °F 26.6 °F 61% 30.08 in 10.0 mi North 15.0 mph 24.2 mph N/A   Overcast
4:55 PM 39.2 °F 29.8 °F 26.6 °F 61% 30.09 in 10.0 mi North 18.4 mph 26.5 mph N/A   Overcast
5:15 PM 39.2 °F 30.2 °F 26.6 °F 61% 30.09 in 10.0 mi North 17.3 mph 27.6 mph N/A   Overcast
5:35 PM 37.4 °F 27.8 °F 26.6 °F 65% 30.10 in 10.0 mi North 17.3 mph 26.5 mph N/A   Overcast
5:55 PM 37.4 °F 27.8 °F 26.6 °F 65% 30.10 in 10.0 mi North 17.3 mph 25.3 mph N/A   Overcast
6:15 PM 37.4 °F 28.9 °F 24.8 °F 60% 30.11 in 10.0 mi North 13.8 mph 21.9 mph N/A   Overcast
6:35 PM 37.4 °F 28.9 °F 24.8 °F 60% 30.12 in 10.0 mi North 13.8 mph - N/A   Overcast
6:55 PM 35.6 °F 25.9 °F 23.0 °F 60% 30.14 in 10.0 mi North 16.1 mph 23.0 mph N/A   Overcast
7:15 PM 35.6 °F 25.5 °F 23.0 °F 60% 30.14 in 10.0 mi North 17.3 mph 21.9 mph N/A   Overcast
7:35 PM 35.6 °F 26.6 °F 23.0 °F 60% 30.15 in 10.0 mi North 13.8 mph 20.7 mph N/A   Overcast
8:15 PM 35.6 °F 26.6 °F 23.0 °F 60% 30.16 in 10.0 mi North 13.8 mph 21.9 mph N/A   Overcast
8:35 PM 35.6 °F 27.1 °F 23.0 °F 60% 30.17 in 10.0 mi North 12.7 mph - N/A   Overcast
8:55 PM 33.8 °F 24.3 °F 23.0 °F 65% 30.18 in 10.0 mi North 13.8 mph 21.9 mph N/A   Overcast
9:15 PM 33.8 °F 24.8 °F 19.4 °F 56% 30.18 in 10.0 mi North 12.7 mph 20.7 mph N/A   Overcast
9:35 PM 33.8 °F 24.3 °F 19.4 °F 56% 30.19 in 10.0 mi North 13.8 mph 18.4 mph N/A   Overcast
9:55 PM 33.8 °F 23.9 °F 19.4 °F 56% 30.20 in 10.0 mi North 15.0 mph 20.7 mph N/A   Overcast
10:15 PM 32.0 °F 22.5 °F 19.4 °F 60% 30.20 in 10.0 mi North 12.7 mph 18.4 mph N/A   Overcast
10:30 PM 32.0 °F 23.0 °F 19.4 °F 60% 30.21 in 10.0 mi North 11.5 mph - N/A   Overcast
10:55 PM 32.0 °F 21.2 °F 19.4 °F 60% 30.21 in 10.0 mi North 16.1 mph 19.6 mph N/A   Overcast
11:15 PM 32.0 °F 23.6 °F 19.4 °F 60% 30.21 in 10.0 mi North 10.4 mph 19.6 mph N/A   Overcast
11:35 PM 32.0 °F 23.6 °F 17.6 °F 55% 30.21 in 10.0 mi NNW 10.4 mph 17.3 mph N/A   Overcast
11:55 PM 32.0 °F 23.0 °F 17.6 °F 55% 30.21 in 10.0 mi NNW 11.5 mph - N/A   Overcast